K7YVO Weather Reports


time (UTC)temp
C
wind
direction
speed
KPH
gust
KPH
rain 1hr
cm
rain 24hr
cm
rain mn
cm
humidity
%
barometer
mb
20260507151212 10 208 1.6 3.2 0.00 0.00 0.00 79 1022.5
20260507150709 10 226 3.2 3.2 0.00 0.00 0.00 79 1022.6
20260507150206 10 203 0.0 0.0 0.00 0.00 0.00 78 1022.8
20260507145702 10 201 0.0 3.2 0.00 0.00 0.00 79 1022.6
20260507145158 10 208 0.0 0.0 0.00 0.00 0.00 79 1022.6
20260507144655 10 202 0.0 1.6 0.00 0.00 0.00 79 1022.8
20260507144154 10 235 1.6 1.6 0.00 0.00 0.00 79 1022.6
20260507143650 10 202 0.0 3.2 0.00 0.00 0.00 80 1022.6
20260507143147 10 210 0.0 1.6 0.00 0.00 0.00 79 1022.6
20260507142642 10 212 0.0 1.6 0.00 0.00 0.00 79 1022.6
20260507142139 10 207 0.0 3.2 0.00 0.00 0.00 80 1022.5
20260507141635 9 203 0.0 0.0 0.00 0.00 0.00 80 1022.6
20260507141133 9 204 0.0 0.0 0.00 0.00 0.00 81 1022.5
20260507140629 9 206 0.0 0.0 0.00 0.00 0.00 80 1022.5
20260507140126 9 204 0.0 0.0 0.00 0.00 0.00 81 1022.4
20260507135623 9 205 0.0 1.6 0.00 0.00 0.00 81 1022.5
20260507135121 9 207 3.2 3.2 0.00 0.00 0.00 81 1022.4
20260507134617 9 210 0.0 3.2 0.00 0.00 0.00 81 1022.4
20260507134113 9 209 0.0 1.6 0.00 0.00 0.00 81 1022.2
20260507133609 9 217 0.0 0.0 0.00 0.00 0.00 81 1022.3
20260507133107 9 209 1.6 1.6 0.00 0.00 0.00 81 1022.5
20260507132603 9 203 0.0 1.6 0.00 0.00 0.00 82 1022.4
20260507132100 9 206 1.6 1.6 0.00 0.00 0.00 82 1022.4
20260507131557 9 228 3.2 3.2 0.00 0.00 0.00 82 1022.5
20260507131055 9 199 0.0 3.2 0.00 0.00 0.00 82 1022.4
20260507130551 9 224 1.6 3.2 0.00 0.00 0.00 82 1022.5
20260507130049 9 235 1.6 1.6 0.00 0.00 0.00 82 1022.4
20260507125548 9 204 0.0 3.2 0.00 0.00 0.00 83 1022.4
20260507125045 9 210 0.0 0.0 0.00 0.00 0.00 83 1022.4
20260507124541 9 204 0.0 1.6 0.00 0.00 0.00 83 1022.3
20260507124039 10 239 1.6 3.2 0.00 0.00 0.00 83 1022.5
20260507123536 10 254 0.0 0.0 0.00 0.00 0.00 82 1022.3
20260507123033 10 201 0.0 3.2 0.00 0.00 0.00 83 1022.2
20260507122528 9 214 0.0 3.2 0.00 0.00 0.00 83 1022.3
20260507122025 10 211 1.6 1.6 0.00 0.00 0.00 83 1022.5
20260507121520 10 229 3.2 3.2 0.00 0.00 0.00 82 1022.4
20260507121016 10 207 0.0 1.6 0.00 0.00 0.00 82 1022.5
20260507120513 10 205 0.0 1.6 0.00 0.00 0.00 82 1022.6
20260507120010 10 240 0.0 1.6 0.00 0.00 0.00 82 1022.6
20260507115506 10 251 1.6 3.2 0.00 0.00 0.00 81 1022.6
20260507115002 10 232 0.0 0.0 0.00 0.00 0.00 82 1022.5
20260507114458 10 208 1.6 1.6 0.00 0.00 0.00 82 1022.8
20260507113955 10 212 0.0 0.0 0.00 0.00 0.00 81 1022.4
20260507113452 10 201 0.0 1.6 0.00 0.00 0.00 81 1022.6
20260507112949 10 206 0.0 0.0 0.00 0.00 0.00 81 1022.8
20260507112447 10 200 0.0 0.0 0.00 0.00 0.00 81 1022.5
20260507111943 10 248 1.6 3.2 0.00 0.00 0.00 81 1022.6
20260507111441 10 208 1.6 1.6 0.00 0.00 0.00 81 1022.6
20260507110937 10 205 0.0 1.6 0.00 0.00 0.00 81 1022.8
20260507110433 10 212 0.0 3.2 0.00 0.00 0.00 81 1022.8
20260507105930 10 216 0.0 1.6 0.00 0.00 0.00 82 1022.6
20260507105427 10 204 1.6 3.2 0.00 0.00 0.00 82 1022.8
20260507104924 10 206 0.0 0.0 0.00 0.00 0.00 82 1022.9
20260507104421 10 205 1.6 1.6 0.00 0.00 0.00 81 1022.9
20260507103916 10 216 0.0 4.8 0.00 0.00 0.00 82 1022.8
20260507103413 10 208 1.6 3.2 0.00 0.00 0.00 82 1022.8
20260507102909 10 206 0.0 1.6 0.00 0.00 0.00 82 1022.8
20260507102406 10 202 0.0 0.0 0.00 0.00 0.00 82 1023.1
20260507101903 10 204 1.6 3.2 0.00 0.00 0.00 82 1023.0
20260507101403 10 205 1.6 3.2 0.00 0.00 0.00 82 1023.0
20260507100900 10 218 0.0 3.2 0.00 0.00 0.00 82 1023.1
20260507100357 10 258 1.6 3.2 0.00 0.00 0.00 83 1023.1
20260507095856 10 208 0.0 1.6 0.00 0.00 0.00 83 1023.2
20260507095352 10 212 1.6 3.2 0.00 0.00 0.00 82 1023.2
20260507094849 10 207 0.0 1.6 0.00 0.00 0.00 82 1023.3
20260507094345 10 203 0.0 3.2 0.00 0.00 0.00 82 1023.2
20260507093843 10 197 0.0 3.2 0.00 0.00 0.00 83 1023.1
20260507093341 10 215 1.6 3.2 0.00 0.00 0.00 83 1023.3
20260507092839 10 211 3.2 3.2 0.00 0.00 0.00 83 1023.4
20260507092335 10 268 1.6 3.2 0.00 0.00 0.00 83 1023.3
20260507091831 10 202 0.0 1.6 0.00 0.00 0.00 83 1023.3
20260507091328 11 221 1.6 3.2 0.00 0.00 0.00 83 1023.3
20260507090823 11 212 0.0 0.0 0.00 0.00 0.00 83 1023.4
20260507090320 11 206 0.0 0.0 0.00 0.00 0.00 83 1023.5
20260507085817 11 216 0.0 0.0 0.00 0.00 0.00 83 1023.1
20260507085314 11 207 0.0 0.0 0.00 0.00 0.00 83 1023.4
20260507084811 11 209 0.0 0.0 0.00 0.00 0.00 84 1023.3
20260507084307 11 204 0.0 0.0 0.00 0.00 0.00 84 1023.5
20260507083805 11 210 0.0 1.6 0.00 0.00 0.00 84 1023.4
20260507083301 11 222 0.0 1.6 0.00 0.00 0.00 84 1023.4
20260507082757 11 212 0.0 1.6 0.00 0.00 0.00 83 1023.4
20260507082253 11 206 0.0 1.6 0.00 0.00 0.00 83 1023.5
20260507081750 11 206 0.0 3.2 0.00 0.00 0.00 83 1023.5
20260507081246 11 202 0.0 3.2 0.00 0.00 0.00 83 1023.4
20260507080743 11 207 0.0 3.2 0.00 0.00 0.00 83 1023.6
20260507080239 11 218 1.6 3.2 0.00 0.00 0.00 83 1023.6
20260507075735 11 211 0.0 3.2 0.00 0.00 0.00 83 1023.6
20260507075231 11 259 3.2 4.8 0.00 0.00 0.00 83 1023.5
20260507074727 11 206 0.0 3.2 0.00 0.00 0.00 83 1023.6
20260507074226 11 355 4.8 4.8 0.00 0.00 0.00 83 1023.6
20260507073722 11 205 0.0 4.8 0.00 0.00 0.00 82 1023.5
20260507073219 11 255 1.6 4.8 0.00 0.00 0.00 82 1023.4
20260507072717 11 205 1.6 3.2 0.00 0.00 0.00 82 1023.4
20260507072214 11 202 1.6 3.2 0.00 0.00 0.00 82 1023.5
20260507071711 11 263 3.2 3.2 0.00 0.00 0.00 82 1023.4
20260507071207 11 206 0.0 4.8 0.00 0.00 0.00 82 1023.1
20260507070705 11 224 3.2 4.8 0.00 0.00 0.00 82 1023.4
20260507070201 11 349 3.2 4.8 0.00 0.00 0.00 82 1023.5
20260507065657 11 204 0.0 1.6 0.00 0.00 0.00 82 1023.5
20260507065155 11 214 1.6 3.2 0.00 0.00 0.00 82 1023.4
20260507064652 11 206 0.0 3.2 0.00 0.00 0.00 82 1023.6
20260507064150 11 260 1.6 3.2 0.00 0.00 0.00 81 1023.3
20260507063648 11 204 0.0 4.8 0.00 0.00 0.00 81 1023.6
20260507063145 11 201 0.0 3.2 0.00 0.00 0.00 81 1023.5
20260507062641 11 205 1.6 4.8 0.00 0.00 0.00 81 1023.6
20260507062139 11 222 1.6 3.2 0.00 0.00 0.00 81 1023.4
20260507061637 12 297 3.2 6.4 0.00 0.00 0.00 81 1023.4
20260507061134 11 206 0.0 4.8 0.00 0.00 0.00 81 1023.6
20260507060632 12 201 1.6 3.2 0.00 0.00 0.00 81 1023.5
20260507060128 12 298 3.2 3.2 0.00 0.00 0.00 80 1023.4
20260507055624 12 259 0.0 1.6 0.00 0.00 0.00 80 1023.4
20260507055120 12 234 1.6 3.2 0.00 0.00 0.00 81 1023.5
20260507054616 12 208 0.0 0.0 0.00 0.00 0.00 82 1023.4
20260507054114 12 203 0.0 1.6 0.00 0.00 0.00 82 1023.2
20260507053611 12 202 0.0 3.2 0.00 0.00 0.00 82 1023.5
20260507053110 12 204 0.0 0.0 0.00 0.00 0.00 81 1023.4
20260507052607 12 227 3.2 3.2 0.00 0.00 0.00 81 1023.4
20260507052104 12 206 1.6 1.6 0.00 0.00 0.00 81 1023.5
20260507051601 12 206 0.0 1.6 0.00 0.00 0.00 82 1023.3
20260507051058 12 259 3.2 3.2 0.00 0.00 0.00 81 1023.3
20260507050554 12 208 0.0 3.2 0.00 0.00 0.00 82 1023.4
20260507050051 12 209 1.6 3.2 0.00 0.00 0.00 82 1023.4
20260507045548 12 199 1.6 9.7 0.00 0.00 0.00 82 1023.6
20260507045045 12 206 0.0 3.2 0.00 0.00 0.00 81 1023.3
20260507044541 12 225 3.2 4.8 0.00 0.00 0.00 81 1023.2
20260507044039 12 194 6.4 9.7 0.00 0.00 0.00 81 1023.3
20260507043534 13 296 1.6 3.2 0.00 0.00 0.00 81 1023.4
20260507043032 13 172 3.2 3.2 0.00 0.00 0.00 81 1023.2
20260507042527 13 218 0.0 6.4 0.00 0.00 0.00 81 1023.2
20260507042024 13 192 0.0 4.8 0.00 0.00 0.00 81 1023.1
20260507041521 13 263 3.2 3.2 0.00 0.00 0.00 81 1023.0
20260507041017 13 227 3.2 3.2 0.00 0.00 0.00 81 1023.0
20260507040514 13 195 0.0 3.2 0.00 0.00 0.00 81 1022.9
20260507040009 13 266 6.4 9.7 0.00 0.00 0.00 81 1022.9
20260507035506 13 207 1.6 4.8 0.00 0.00 0.00 81 1022.9
20260507035002 13 329 4.8 4.8 0.00 0.00 0.00 81 1022.9
20260507034459 13 285 3.2 4.8 0.00 0.00 0.00 81 1022.6
20260507033957 13 205 0.0 3.2 0.00 0.00 0.00 81 1022.5
20260507033456 13 240 3.2 4.8 0.00 0.00 0.00 80 1022.5
20260507032952 13 312 4.8 11.3 0.00 0.00 0.00 80 1022.2
20260507032449 14 230 3.2 4.8 0.00 0.00 0.00 80 1022.3
20260507031945 14 191 0.0 3.2 0.00 0.00 0.00 79 1022.3
20260507031441 14 196 0.0 4.8 0.00 0.00 0.00 79 1022.1
20260507030938 15 206 1.6 3.2 0.00 0.00 0.00 78 1022.2
20260507030436 15 194 3.2 3.2 0.00 0.00 0.00 78 1021.9
20260507025933 15 245 3.2 4.8 0.00 0.00 0.00 77 1022.0
20260507025430 15 180 1.6 4.8 0.00 0.00 0.00 76 1022.0
20260507024928 16 253 3.2 4.8 0.00 0.00 0.00 75 1021.7
20260507024425 16 214 1.6 4.8 0.00 0.00 0.00 75 1021.9
20260507023920 16 204 1.6 6.4 0.00 0.00 0.00 74 1021.8
20260507023418 17 202 3.2 6.4 0.00 0.00 0.00 72 1021.7
20260507022915 17 268 0.0 3.2 0.00 0.00 0.00 72 1021.8
20260507022411 17 199 4.8 12.9 0.00 0.00 0.00 73 1022.0
20260507021907 17 213 0.0 3.2 0.00 0.00 0.00 73 1021.8
20260507021402 17 281 0.0 6.4 0.00 0.00 0.00 74 1021.9
20260507020901 17 200 3.2 3.2 0.00 0.00 0.00 76 1022.0
20260507020357 16 204 1.6 4.8 0.00 0.00 0.00 76 1022.1
20260507015854 17 229 1.6 6.4 0.00 0.00 0.00 75 1022.2
20260507015352 17 229 1.6 4.8 0.00 0.00 0.00 74 1022.2
20260507014849 17 206 0.0 4.8 0.00 0.00 0.00 74 1022.0
20260507014345 17 203 0.0 4.8 0.00 0.00 0.00 73 1022.1
20260507013841 17 203 3.2 3.2 0.00 0.00 0.00 73 1022.0
20260507013339 17 132 3.2 4.8 0.00 0.00 0.00 72 1022.0
20260507012836 17 203 1.6 3.2 0.00 0.00 0.00 72 1022.0
20260507012331 18 239 1.6 3.2 0.00 0.00 0.00 70 1022.0
20260507011829 18 223 0.0 1.6 0.00 0.00 0.00 70 1022.0
20260507011326 18 252 3.2 4.8 0.00 0.00 0.00 70 1021.9
20260507010825 18 211 3.2 3.2 0.00 0.00 0.00 69 1021.9
20260507010321 18 256 1.6 4.8 0.00 0.00 0.00 69 1022.0
20260507005819 18 343 4.8 6.4 0.00 0.00 0.00 69 1022.0
20260507005316 18 229 3.2 3.2 0.00 0.00 0.00 66 1022.1
20260507004807 18 22 1.6 4.8 0.00 0.00 0.00 66 1022.1
20260507004304 19 214 1.6 3.2 0.00 0.00 0.00 63 1022.0
20260507003800 20 203 0.0 3.2 0.00 0.00 0.00 61 1021.9
20260507003250 21 202 1.6 4.8 0.00 0.00 0.00 61 1021.9
20260507002746 20 278 1.6 4.8 0.00 0.00 0.00 62 1022.0
20260507002242 20 248 4.8 4.8 0.00 0.00 0.00 62 1022.1
20260507001739 20 256 3.2 4.8 0.00 0.00 0.00 64 1022.1
20260507001237 21 211 1.6 6.4 0.00 0.00 0.00 59 1022.1
20260507000733 20 216 1.6 3.2 0.00 0.00 0.00 62 1022.1
20260507000229 19 203 0.0 0.0 0.00 0.00 0.00 64 1022.1
20260506235726 19 215 3.2 6.4 0.00 0.00 0.00 66 1022.0
20260506235221 19 245 3.2 4.8 0.00 0.00 0.00 66 1022.1
20260506234718 19 206 0.0 3.2 0.00 0.00 0.00 66 1022.1
20260506234215 18 218 1.6 3.2 0.00 0.00 0.00 69 1022.2
20260506233713 19 255 3.2 3.2 0.00 0.00 0.00 67 1022.1
20260506233209 18 200 0.0 4.8 0.00 0.00 0.00 69 1022.0
20260506232707 18 206 0.0 6.4 0.00 0.00 0.00 68 1022.3
20260506232200 18 194 0.0 3.2 0.00 0.00 0.00 68 1022.3
20260506231653 20 198 3.2 9.7 0.00 0.00 0.00 66 1022.2
20260506231151 20 182 3.2 4.8 0.00 0.00 0.00 61 1022.3
20260506230647 18 209 1.6 3.2 0.00 0.00 0.00 64 1022.5
20260506230144 17 204 0.0 1.6 0.00 0.00 0.00 69 1022.4
20260506225640 17 208 3.2 3.2 0.00 0.00 0.00 70 1022.3
20260506225138 18 262 3.2 6.4 0.00 0.00 0.00 70 1022.5
20260506224634 18 273 1.6 4.8 0.00 0.00 0.00 68 1022.5
20260506224130 17 211 0.0 6.4 0.00 0.00 0.00 70 1022.5
20260506223627 17 220 1.6 6.4 0.00 0.00 0.00 71 1022.5
20260506223123 17 188 1.6 6.4 0.00 0.00 0.00 71 1022.5
20260506222620 18 205 3.2 3.2 0.00 0.00 0.00 68 1022.6
20260506222116 17 201 3.2 4.8 0.00 0.00 0.00 70 1022.8
20260506221614 18 264 4.8 6.4 0.00 0.00 0.00 67 1022.4
20260506221112 17 250 1.6 4.8 0.00 0.00 0.00 70 1022.5
20260506220608 17 211 0.0 3.2 0.00 0.00 0.00 71 1022.8
20260506220103 17 210 1.6 3.2 0.00 0.00 0.00 70 1022.6
20260506215600 17 190 1.6 4.8 0.00 0.00 0.00 71 1022.4
20260506215056 17 209 1.6 9.7 0.00 0.00 0.00 71 1022.6
20260506214553 17 185 3.2 4.8 0.00 0.00 0.00 72 1022.9
20260506214050 17 170 3.2 4.8 0.00 0.00 0.00 72 1022.8
20260506213548 17 211 1.6 6.4 0.00 0.00 0.00 73 1022.9
20260506213045 17 239 1.6 4.8 0.00 0.00 0.00 73 1023.0
20260506212542 17 207 1.6 6.4 0.00 0.00 0.00 73 1023.0
20260506212037 17 201 3.2 6.4 0.00 0.00 0.00 73 1023.0
20260506211533 16 221 1.6 3.2 0.00 0.00 0.00 73 1023.0
20260506211031 16 212 3.2 6.4 0.00 0.00 0.00 74 1023.0
20260506210527 16 209 1.6 4.8 0.00 0.00 0.00 74 1022.8
20260506210024 17 214 3.2 4.8 0.00 0.00 0.00 73 1022.9
20260506205521 16 216 0.0 4.8 0.00 0.00 0.00 74 1023.1
20260506205016 16 207 3.2 4.8 0.00 0.00 0.00 75 1022.9
20260506204514 16 204 1.6 3.2 0.00 0.00 0.00 74 1023.1
20260506204011 16 207 1.6 3.2 0.00 0.00 0.00 75 1023.0
20260506203509 16 203 3.2 3.2 0.00 0.00 0.00 74 1023.0
20260506203005 16 189 1.6 4.8 0.00 0.00 0.00 76 1023.1
20260506202503 16 270 1.6 3.2 0.00 0.00 0.00 78 1023.0
20260506201958 15 207 0.0 0.0 0.00 0.00 0.00 79 1023.4
20260506201456 15 199 3.2 3.2 0.00 0.00 0.00 80 1023.2
20260506200952 15 212 1.6 3.2 0.00 0.00 0.00 79 1023.4
20260506200449 16 209 1.6 3.2 0.00 0.00 0.00 78 1023.2
20260506195945 15 227 1.6 1.6 0.00 0.00 0.00 79 1023.2
20260506195442 15 215 1.6 3.2 0.00 0.00 0.00 80 1023.3
20260506194938 15 212 1.6 3.2 0.00 0.00 0.00 80 1023.2
20260506194436 15 250 4.8 6.4 0.00 0.00 0.00 80 1023.3
20260506193932 15 205 1.6 1.6 0.00 0.00 0.00 80 1023.1
20260506193430 15 205 1.6 3.2 0.00 0.00 0.00 80 1023.2
20260506192926 15 211 1.6 3.2 0.00 0.00 0.00 79 1023.1
20260506192424 16 210 0.0 1.6 0.00 0.00 0.00 78 1023.1
20260506191920 15 197 0.0 3.2 0.00 0.00 0.00 80 1023.2
20260506191416 15 204 1.6 1.6 0.00 0.00 0.00 80 1023.2
20260506190914 15 198 1.6 3.2 0.00 0.00 0.00 80 1023.3
20260506190410 15 207 0.0 3.2 0.00 0.00 0.00 81 1023.3
20260506185907 15 211 0.0 4.8 0.00 0.00 0.00 82 1023.2
20260506185404 14 222 3.2 4.8 0.00 0.00 0.00 83 1023.4
20260506184901 14 205 1.6 4.8 0.00 0.00 0.00 84 1023.3
20260506184358 14 226 1.6 4.8 0.00 0.00 0.00 84 1023.3
20260506183855 14 208 3.2 6.4 0.00 0.00 0.00 85 1023.1
20260506183350 14 235 1.6 4.8 0.00 0.00 0.00 85 1023.2
20260506182848 14 203 0.0 1.6 0.00 0.00 0.00 85 1023.3
20260506182345 13 214 3.2 6.4 0.00 0.00 0.00 85 1023.3
20260506181842 13 192 1.6 4.8 0.00 0.00 0.00 85 1023.1
20260506181340 13 215 1.6 3.2 0.00 0.00 0.00 86 1023.2
20260506180837 13 232 0.0 1.6 0.00 0.00 0.00 86 1023.1
20260506180333 13 208 1.6 3.2 0.00 0.00 0.00 86 1023.1
20260506175829 13 209 0.0 1.6 0.00 0.00 0.00 86 1023.1
20260506175326 13 213 0.0 1.6 0.00 0.00 0.00 88 1023.1
20260506174823 13 201 0.0 9.7 0.00 0.00 0.00 88 1022.9
20260506174321 13 217 1.6 3.2 0.00 0.00 0.00 88 1022.9
20260506173818 13 209 1.6 4.8 0.00 0.00 0.00 89 1023.0
20260506173315 13 235 3.2 4.8 0.00 0.00 0.00 88 1022.9
20260506172812 13 219 1.6 3.2 0.00 0.00 0.00 88 1023.1
20260506172308 13 233 0.0 3.2 0.00 0.00 0.00 88 1023.0
20260506171806 13 225 3.2 4.8 0.00 0.00 0.00 87 1022.9
20260506171303 13 207 1.6 1.6 0.00 0.00 0.00 88 1022.8
20260506170801 13 222 3.2 4.8 0.00 0.00 0.00 87 1023.0
20260506170257 13 214 1.6 1.6 0.00 0.00 0.00 87 1022.8
20260506165755 13 205 0.0 3.2 0.00 0.00 0.00 87 1022.9
20260506165252 13 205 1.6 3.2 0.00 0.00 0.00 86 1022.8
20260506164749 13 204 1.6 3.2 0.00 0.00 0.00 86 1022.6
20260506164246 14 191 1.6 4.8 0.00 0.00 0.00 86 1022.8
20260506163743 14 204 1.6 1.6 0.00 0.00 0.00 85 1022.4
20260506163238 14 205 0.0 1.6 0.00 0.00 0.00 85 1022.3
20260506162734 14 207 0.0 1.6 0.00 0.00 0.00 85 1022.5
20260506162232 14 203 0.0 3.2 0.00 0.00 0.00 85 1022.3
20260506161729 14 207 1.6 1.6 0.00 0.00 0.00 84 1022.5
20260506161226 14 207 0.0 1.6 0.00 0.00 0.00 84 1022.1
20260506160724 13 210 0.0 0.0 0.00 0.00 0.00 86 1021.9
20260506160220 12 204 0.0 0.0 0.00 0.00 0.00 89 1021.9
20260506155719 12 210 0.0 1.6 0.00 0.00 0.00 89 1022.5
20260506155216 12 237 0.0 1.6 0.00 0.00 0.00 89 1022.9
20260506153324 12 203 1.6 4.8 0.00 0.00 0.00 90 1023.0
20260506152821 12 247 3.2 3.2 0.00 0.00 0.00 91 1022.6
20260506152318 12 216 1.6 4.8 0.00 0.00 0.00 91 1022.9
20260506151817 12 213 1.6 3.2 0.00 0.00 0.00 91 1022.6